DW2485 Weather Reports


time (UTC)temp
F
wind
direction
speed
knots
gust
knots
rain 1hr
in
rain 24hr
in
rain mn
in
humidity
%
barometer
mb
20260505040506 55 307 6.1 8.7 0.00 0.00 0.00 100 1007.0
20260505035505 55 309 7.0 7.8 0.00 0.00 0.00 100 1006.8
20260505033006 56 307 7.0 11.3 0.00 0.00 0.00 100 1006.5
20260505031506 57 306 6.1 8.7 0.00 0.00 0.00 100 1006.2
20260505025506 58 306 6.1 10.4 0.00 0.00 0.00 100 1006.1
20260505022005 60 312 9.6 13.9 0.00 0.00 0.00 100 1005.5
20260505021006 60 323 9.6 12.2 0.00 0.00 0.00 100 1005.3
20260505020005 60 323 9.6 12.2 0.00 0.00 0.00 100 1005.0
20260505015505 61 324 8.7 13.9 0.00 0.00 0.00 100 1004.9
20260505014506 61 316 7.8 17.4 0.00 0.00 0.00 100 1004.6
20260505012505 63 320 13.9 20.0 0.00 0.00 0.00 100 1003.9
20260505011005 64 317 13.9 20.0 0.00 0.00 0.00 100 1003.6
20260505010006 65 316 16.5 25.2 0.00 0.00 0.00 100 1003.1
20260505005005 66 314 13.0 20.0 0.00 0.00 0.00 100 1002.8
20260505004506 67 313 14.8 22.6 0.00 0.00 0.00 100 1002.7
20260505003506 68 304 22.6 31.3 0.00 0.00 0.00 100 1002.1
20260505003006 69 310 20.0 25.2 0.00 0.00 0.00 100 1002.1
20260505002505 69 311 17.4 26.1 0.00 0.00 0.00 100 1002.0
20260505001006 71 320 15.6 21.7 0.00 0.00 0.00 100 1001.4
20260505000005 72 323 18.2 22.6 0.00 0.00 0.00 100 1001.1
20260504235506 72 322 14.8 24.3 0.00 0.00 0.00 100 1001.1
20260504235006 72 327 18.2 26.9 0.00 0.00 0.00 100 1001.1
20260504234505 73 317 13.9 19.1 0.00 0.00 0.00 100 1001.0
20260504233505 74 319 13.0 21.7 0.00 0.00 0.00 100 1000.9
20260504233006 74 327 15.6 20.9 0.00 0.00 0.00 100 1001.0
20260504232505 74 320 16.5 25.2 0.00 0.00 0.00 100 1000.8
20260504231505 75 321 17.4 24.3 0.00 0.00 0.00 100 1000.6
20260504230505 77 324 17.4 22.6 0.00 0.00 0.00 100 1000.3
20260504225505 77 316 14.8 20.9 0.00 0.00 0.00 100 1000.3
20260504224505 78 325 12.2 20.9 0.00 0.00 0.00 100 1000.1
20260504224006 79 311 18.2 24.3 0.00 0.00 0.00 100 1000.0
20260504223505 79 322 17.4 26.1 0.00 0.00 0.00 100 999.9
20260504222005 81 323 16.5 26.1 0.00 0.00 0.00 100 999.5
20260504221005 82 302 17.4 24.3 0.00 0.00 0.00 100 999.4
20260504220505 82 321 13.9 18.2 0.00 0.00 0.00 100 999.3
20260504214005 83 239 7.8 18.2 0.00 0.00 0.00 100 999.3
20260504213505 81 246 8.7 11.3 0.00 0.00 0.00 100 999.5
20260504213005 81 252 11.3 18.2 0.00 0.00 0.00 100 999.6
20260504211505 83 257 10.4 17.4 0.00 0.00 0.00 100 999.6
20260504205505 82 262 12.2 19.1 0.00 0.00 0.00 100 999.6
20260504204005 82 248 11.3 17.4 0.00 0.00 0.00 100 1000.0
20260504203504 81 266 14.8 21.7 0.00 0.00 0.00 100 1000.0
20260504203005 81 263 13.9 22.6 0.00 0.00 0.00 100 1000.1
20260504202505 82 258 10.4 24.3 0.00 0.00 0.00 100 1000.1
20260504201504 80 253 11.3 19.1 0.00 0.00 0.00 100 1000.3
20260504201005 80 251 11.3 15.6 0.00 0.00 0.00 100 1000.4
20260504200505 81 257 13.0 19.1 0.00 0.00 0.00 100 1000.3
20260504195004 81 258 14.8 20.9 0.00 0.00 0.00 100 1000.5
20260504194505 81 258 12.2 17.4 0.00 0.00 0.00 100 1000.6
20260504194005 82 257 15.6 20.9 0.00 0.00 0.00 100 1000.6
20260504193504 82 264 14.8 22.6 0.00 0.00 0.00 100 1000.6
20260504193005 81 247 12.2 22.6 0.00 0.00 0.00 100 1000.6
20260504192505 81 248 13.0 20.0 0.00 0.00 0.00 100 1000.8
20260504192004 81 265 8.7 20.0 0.00 0.00 0.00 100 1000.8
20260504190505 83 271 14.8 22.6 0.00 0.00 0.00 100 1000.8
20260504190005 83 272 15.6 24.3 0.00 0.00 0.00 100 1000.8
20260504185505 82 253 10.4 17.4 0.00 0.00 0.00 100 1001.0
20260504184005 83 256 11.3 17.4 0.00 0.00 0.00 100 1001.1
20260504183505 83 225 12.2 20.9 0.00 0.00 0.00 100 1001.0
20260504183004 83 248 11.3 20.0 0.00 0.00 0.00 100 1001.0
20260504182005 82 269 11.3 19.1 0.00 0.00 0.00 100 1001.1
20260504175505 81 264 8.7 17.4 0.00 0.00 0.00 100 1001.0
20260504174005 80 241 11.3 15.6 0.00 0.00 0.00 100 1001.1
20260504173004 81 250 8.7 13.9 0.00 0.00 0.00 100 1001.5
20260504172505 80 218 7.0 13.9 0.00 0.00 0.00 100 1001.4
20260504170504 80 243 10.4 13.9 0.00 0.00 0.00 100 1001.8
20260504140505 64 206 4.3 7.0 0.00 0.00 0.00 100 1004.2
20260504081504 45 177 0.0 1.7 0.00 0.01 0.00 100 1006.8
20260504081004 45 177 0.9 0.9 0.00 0.01 0.00 100 1006.8
20260504050504 53 186 0.0 0.9 0.00 0.01 0.00 100 1008.6
20260504045504 53 186 1.7 2.6 0.00 0.01 0.01 100 1008.7
20260504042503 55 217 1.7 1.7 0.00 0.01 0.01 100 1008.8